Location: Melbourne
(37.8170°S, 144.9670°E)
Time: 19:34:18
(UTC+11:00)

Explorer 11/Cluster Stage 4 - Visible Passes

Search period start: 07 December 2016 00:00
Search period end: 17 December 2016 00:00
Orbit: 467 x 1264 km, 28.8° (Epoch: 06 December)

Date Brightness Start Highest point End Pass type
(mag) Time Alt. Az. Time Alt. Az. Time Alt. Az.
07 Dec 7.9 05:17:33 10° NNW 05:20:24 18° NNE 05:23:36 10° ENE visible
08 Dec 7.7 05:07:38 10° NNW 05:10:29 18° NNE 05:13:41 10° ENE visible
09 Dec 7.5 04:58:02 11° NNW 05:00:37 19° NNE 05:03:47 10° ENE visible
10 Dec 7.4 04:48:44 14° NNW 04:50:45 20° NNE 04:53:52 10° ENE visible
11 Dec 7.2 04:39:28 17° NNW 04:40:54 20° N 04:43:58 10° ENE visible
12 Dec 7.1 04:30:13 19° NNW 04:31:04 20° N 04:34:04 10° NE visible
13 Dec 7.0 04:21:00 20° N 04:21:14 21° N 04:24:10 10° NE visible
14 Dec 7.1 04:11:52 20° NNE 04:11:52 20° NNE 04:14:17 10° NE visible
15 Dec 7.4 04:02:48 17° NNE 04:02:48 17° NNE 04:04:24 10° NE visible
16 Dec 7.8 03:53:50 13° NE 03:53:50 13° NE 03:54:31 10° NE visible
